EN

Hourly Weather Buczki

Today, 18 May, Tuesday

Time Temperature Precipitation Wind Pressure Humidity
00:00 +9°C° 0.2 mm 2 mps 731 mmHg 96%
01:00 +9°C° 0 mm 2 mps 731 mmHg 96%
02:00 +9°C° 0.2 mm 2 mps 731 mmHg 96%
03:00 +9°C° 0.2 mm 3 mps 731 mmHg 95%
04:00 +9°C° 0.2 mm 3 mps 731 mmHg 95%
05:00 +8°C° 0.1 mm 4 mps 731 mmHg 93%
06:00 +10°C° 0.1 mm 4 mps 732 mmHg 91%
07:00 +10°C° 0.1 mm 4 mps 732 mmHg 89%
08:00 +10°C° 0.1 mm 5 mps 733 mmHg 85%
09:00 +11°C° 0.1 mm 6 mps 733 mmHg 81%
10:00 +11°C° 0.1 mm 6 mps 733 mmHg 77%
11:00 +13°C° 0.2 mm 6 mps 733 mmHg 76%
12:00 +12°C° 0.2 mm 7 mps 733 mmHg 76%
13:00 +12°C° 0.2 mm 7 mps 734 mmHg 75%
14:00 +13°C° 0.1 mm 6 mps 734 mmHg 74%
15:00 +13°C° 0.1 mm 6 mps 734 mmHg 73%
16:00 +13°C° 0.1 mm 6 mps 734 mmHg 72%
17:00 +13°C° 0 mm 5 mps 734 mmHg 76%
18:00 +12°C° 0 mm 4 mps 734 mmHg 79%
19:00 +11°C° 0 mm 3 mps 734 mmHg 83%
20:00 +10°C° 0 mm 3 mps 735 mmHg 86%
21:00 +9°C° 0 mm 3 mps 735 mmHg 89%
22:00 +8°C° 0 mm 2 mps 735 mmHg 93%
23:00 +8°C° 0 mm 2 mps 735 mmHg 93%

Tomorrow, 19 May, Wednesday

Time Temperature Precipitation Wind Pressure Humidity
00:00 +7°C° 0 mm 3 mps 735 mmHg 93%
01:00 +7°C° 0 mm 3 mps 735 mmHg 93%
02:00 +6°C° 0 mm 2 mps 735 mmHg 94%
03:00 +6°C° 0 mm 2 mps 735 mmHg 95%
04:00 +6°C° 0 mm 2 mps 735 mmHg 95%
05:00 +7°C° 0 mm 3 mps 736 mmHg 90%
06:00 +8°C° 0 mm 3 mps 736 mmHg 86%
07:00 +10°C° 0 mm 4 mps 736 mmHg 81%
08:00 +11°C° 0.2 mm 4 mps 736 mmHg 78%
09:00 +12°C° 0.2 mm 4 mps 736 mmHg 74%
10:00 +13°C° 0.2 mm 4 mps 736 mmHg 71%
11:00 +13°C° 0.2 mm 4 mps 736 mmHg 67%
12:00 +14°C° 0.2 mm 4 mps 736 mmHg 63%
13:00 +14°C° 0.2 mm 4 mps 736 mmHg 59%
14:00 +14°C° 0.3 mm 4 mps 736 mmHg 61%
15:00 +14°C° 0.3 mm 4 mps 736 mmHg 63%
16:00 +14°C° 0.3 mm 4 mps 736 mmHg 65%
17:00 +13°C° 0.1 mm 3 mps 736 mmHg 72%
18:00 +12°C° 0.1 mm 3 mps 736 mmHg 78%
19:00 +10°C° 0.1 mm 3 mps 736 mmHg 85%
20:00 +10°C° 0 mm 3 mps 736 mmHg 88%
21:00 +9°C° 0 mm 3 mps 736 mmHg 91%
22:00 +8°C° 0 mm 3 mps 737 mmHg 94%
23:00 +8°C° 0 mm 3 mps 737 mmHg 94%

Day after tomorrow, 20 May, Thursday

Time Temperature Precipitation Wind Pressure Humidity
00:00 +8°C° 0 mm 3 mps 737 mmHg 95%
01:00 +7°C° 0 mm 3 mps 737 mmHg 95%
02:00 +7°C° 0 mm 3 mps 737 mmHg 95%
03:00 +7°C° 0 mm 3 mps 737 mmHg 95%
04:00 +5°C° 0 mm 3 mps 737 mmHg 95%
05:00 +8°C° 0 mm 3 mps 738 mmHg 90%
06:00 +9°C° 0 mm 3 mps 738 mmHg 85%
07:00 +10°C° 0 mm 4 mps 738 mmHg 80%
08:00 +11°C° 0.1 mm 4 mps 739 mmHg 73%
09:00 +12°C° 0.1 mm 4 mps 739 mmHg 66%
10:00 +14°C° 0.1 mm 5 mps 739 mmHg 59%
11:00 +14°C° 0.2 mm 5 mps 739 mmHg 57%
12:00 +15°C° 0.2 mm 4 mps 739 mmHg 55%
13:00 +17°C° 0.2 mm 4 mps 739 mmHg 53%
14:00 +15°C° 0.3 mm 5 mps 739 mmHg 57%
15:00 +15°C° 0.3 mm 5 mps 739 mmHg 62%
16:00 +14°C° 0.3 mm 5 mps 739 mmHg 67%
17:00 +13°C° 0.3 mm 5 mps 739 mmHg 74%
18:00 +12°C° 0.3 mm 4 mps 740 mmHg 81%
19:00 +11°C° 0.3 mm 4 mps 740 mmHg 88%
20:00 +10°C° 0.1 mm 3 mps 740 mmHg 91%
21:00 +9°C° 0.1 mm 3 mps 741 mmHg 93%
22:00 +8°C° 0.1 mm 2 mps 741 mmHg 96%
23:00 +7°C° 0 mm 2 mps 741 mmHg 95%

21 May, Friday

Time Temperature Precipitation Wind Pressure Humidity
00:00 +7°C° 0 mm 2 mps 741 mmHg 95%
01:00 +6°C° 0 mm 2 mps 741 mmHg 95%
02:00 +7°C° 0 mm 1 mps 741 mmHg 94%
03:00 +7°C° 0 mm 1 mps 741 mmHg 94%
04:00 +6°C° 0 mm 1 mps 741 mmHg 93%
05:00 +8°C° 0 mm 1 mps 741 mmHg 88%
06:00 +9°C° 0 mm 1 mps 741 mmHg 84%
07:00 +10°C° 0 mm 2 mps 741 mmHg 79%
08:00 +13°C° 0 mm 2 mps 741 mmHg 71%
09:00 +13°C° 0 mm 3 mps 740 mmHg 62%
10:00 +16°C° 0 mm 3 mps 740 mmHg 53%
11:00 +17°C° 0 mm 3 mps 739 mmHg 50%
12:00 +17°C° 0 mm 4 mps 739 mmHg 47%
13:00 +18°C° 0 mm 4 mps 738 mmHg 45%
14:00 +18°C° 0 mm 4 mps 738 mmHg 46%
15:00 +18°C° 0 mm 4 mps 738 mmHg 48%
16:00 +19°C° 0 mm 5 mps 737 mmHg 49%
17:00 +17°C° 0 mm 4 mps 737 mmHg 55%
18:00 +15°C° 0 mm 4 mps 736 mmHg 61%
19:00 +13°C° 0 mm 3 mps 736 mmHg 68%
20:00 +13°C° 0 mm 4 mps 736 mmHg 68%
21:00 +12°C° 0 mm 4 mps 736 mmHg 68%
22:00 +12°C° 0 mm 4 mps 735 mmHg 67%
23:00 +12°C° 0 mm 4 mps 735 mmHg 69%

22 May, Saturday

Time Temperature Precipitation Wind Pressure Humidity
00:00 +11°C° 0 mm 4 mps 734 mmHg 70%
01:00 +11°C° 0 mm 4 mps 734 mmHg 71%
02:00 +10°C° 0 mm 4 mps 733 mmHg 71%
03:00 +10°C° 0 mm 4 mps 733 mmHg 72%
04:00 +10°C° 0 mm 4 mps 732 mmHg 72%
05:00 +11°C° 0 mm 4 mps 732 mmHg 69%
06:00 +13°C° 0 mm 5 mps 732 mmHg 66%
07:00 +14°C° 0 mm 5 mps 732 mmHg 63%
08:00 +15°C° 0 mm 5 mps 732 mmHg 60%
09:00 +16°C° 0 mm 5 mps 732 mmHg 58%
10:00 +17°C° 0 mm 6 mps 732 mmHg 55%
11:00 +16°C° 0.1 mm 5 mps 732 mmHg 60%
12:00 +16°C° 0.1 mm 5 mps 731 mmHg 65%
13:00 +15°C° 0.1 mm 5 mps 731 mmHg 71%
14:00 +14°C° 0.3 mm 5 mps 731 mmHg 75%
15:00 +14°C° 0.3 mm 5 mps 732 mmHg 80%
16:00 +13°C° 0.3 mm 5 mps 732 mmHg 84%
17:00 +12°C° 0.1 mm 5 mps 732 mmHg 83%
18:00 +12°C° 0.1 mm 5 mps 733 mmHg 82%
19:00 +12°C° 0.1 mm 4 mps 733 mmHg 81%
20:00 +11°C° 0 mm 4 mps 734 mmHg 81%
21:00 +11°C° 0 mm 3 mps 734 mmHg 80%
22:00 +10°C° 0 mm 3 mps 734 mmHg 80%
23:00 +10°C° 0 mm 3 mps 735 mmHg 80%

23 May, Sunday

Time Temperature Precipitation Wind Pressure Humidity
00:00 +9°C° 0 mm 3 mps 735 mmHg 80%
01:00 +9°C° 0 mm 3 mps 735 mmHg 80%
02:00 +8°C° 0 mm 4 mps 735 mmHg 80%
03:00 +7°C° 0 mm 4 mps 735 mmHg 80%
04:00 +7°C° 0 mm 4 mps 735 mmHg 81%
05:00 +8°C° 0 mm 4 mps 735 mmHg 77%
06:00 +11°C° 0 mm 4 mps 736 mmHg 72%
07:00 +12°C° 0 mm 4 mps 736 mmHg 68%
08:00 +13°C° 0 mm 4 mps 736 mmHg 64%
09:00 +14°C° 0 mm 5 mps 736 mmHg 61%
10:00 +15°C° 0 mm 5 mps 737 mmHg 57%
11:00 +15°C° 0.2 mm 5 mps 737 mmHg 57%
12:00 +15°C° 0.2 mm 5 mps 737 mmHg 58%
13:00 +15°C° 0.2 mm 5 mps 737 mmHg 58%
14:00 +15°C° 0.3 mm 5 mps 737 mmHg 60%
15:00 +15°C° 0.3 mm 5 mps 737 mmHg 62%
16:00 +14°C° 0.3 mm 5 mps 738 mmHg 65%
17:00 +13°C° 0.1 mm 4 mps 738 mmHg 68%
18:00 +12°C° 0.1 mm 3 mps 738 mmHg 72%
19:00 +12°C° 0.1 mm 2 mps 738 mmHg 76%
20:00 +10°C° 0 mm 2 mps 739 mmHg 79%
21:00 +9°C° 0 mm 2 mps 739 mmHg 82%
22:00 +8°C° 0 mm 3 mps 739 mmHg 85%
23:00 +8°C° 0 mm 3 mps 739 mmHg 84%
Show more

We Need Your Consent

Meteoprog and our Service Providers may store and access personal data such as cookies, device identifiers or other similar technologies on your device and process such data to personalise content and ads, as well as provide social media features and to analyse the traffic.

  • Store and/or access information on your device

    Cookies, device identifiers or other information can be stored or accessed on your device for the purposes indicated above.

  • Personalised ads and content, ad and content measurement, audience insights, and products development

    Ads and content can be personalised based on a profile. More data can be added to better personalise ads and content. Ad and content performance can be measured. Insights about the audience who saw the ads and content can be derived. Such data can be used to develop or improve user’s experience, systems and software.

By clicking ‘I Agree’ you will allow the use of indicated cookies, device identifiers, web beacons or other similar technologies. Your settings can be changed in the browser on your device.

For certain purposes, legitimate interests may be relied on, rather than consent. You can read more about this in our Privacy and Cookie Policy.